Effective Sunday, March 17, 2024, the National Weather Service National Data Buoy Center will discontinue its Dial-A-Buoy Interactive Voice Response system. For more information, see Service Change Notice 24-06 (PDF).

Station PORO3 - 9431647 - Port Orford, OR Image indicating link to RSS feed of recent meteorological observations for station PORO3


Conditions at PORO3 as of
(7:48 pm PST on 02/26/2024)
0348 GMT on 02/27/2024:
     

Click on the graph icon in the table below to see a time series plot of the last five days of that observation.

5-day plot - Wind Direction Wind Direction (WDIR):NNE ( 30 deg true )
5-day plot - Wind Speed Wind Speed (WSPD): 1.9 kts
5-day plot - Wind Gust Wind Gust (GST): 6.0 kts
5-day plot - Atmospheric Pressure Atmospheric Pressure (PRES):30.14 in
5-day plot - Air Temperature Air Temperature (ATMP): 41.9 °F
5-day plot - Water Temperature Water Temperature (WTMP): 53.4 °F
5-day plot - Wind Speed at 10 Meters Wind Speed at 10 meters (WSPD10M): 1.9 kts
5-day plot - Wind Speed at 20 Meters Wind Speed at 20 meters (WSPD20M): 1.9 kts
5-day plot -  Wind Speed, Wind Gust and Atmospheric Pressure Combined plot of Wind Speed, Gust, and Air Pressure
NOS Water Level Observation Network Water Level
Previous observations
TIME
(PST)
5-day plot - Wind Direction
WDIR
 
5-day plot - Wind Speed
WSPD
kts
5-day plot - Wind Gust
GST
kts
5-day plot - Wave Height
WVHT
ft
5-day plot - Dominant Wave Period
DPD
sec
5-day plot - Average Wave Period
APD
sec
5-day plot - Mean Wave Direction
MWD
 
5-day plot - Atmospheric Pressure
PRES
in
5-day plot - Pressure Tendency
PTDY
in
5-day plot - Air Temperature
ATMP
°F
5-day plot - Water Temperature
WTMP
°F
5-day plot - Dew Point
DEWP
°F
5-day plot - Salinity
SAL
psu
5-day plot - Visibility
VIS
nmi
5-day plot - Tide (above MLLW)
TIDE
ft
2024-02-26 07:42 pm NE 6.0 7.0----30.14- 41.7 53.4----
2024-02-26 07:36 pm N 1.9 6.0----30.14- 41.7 53.6----
2024-02-26 07:30 pmNNE 4.1 5.1----30.14- 41.7 53.6----
2024-02-26 07:24 pm N 4.1 5.1----30.14- 41.7 53.6----
2024-02-26 07:18 pmNNE 2.9 5.1----30.14- 41.7 53.6----
2024-02-26 07:12 pm- 0.0 5.1----30.14- 41.7 53.6----
2024-02-26 07:06 pm NE 2.9 5.1----30.14- 41.9 53.6----
2024-02-26 07:00 pm NE 2.9 8.0----30.14+0.04 41.9 53.6----
2024-02-26 06:54 pmENE 6.0 8.9----30.14- 42.1 53.6----
2024-02-26 06:48 pm NE 6.0 8.0----30.13- 42.1 53.6----
2024-02-26 06:42 pm NE 5.1 9.9----30.13- 42.3 53.6----
2024-02-26 06:36 pm NE 6.0 12.0----30.13- 42.4 53.6----
2024-02-26 06:30 pm NE 9.9 15.0----30.13- 42.6 53.6----
2024-02-26 06:24 pmNNE 8.0 9.9----30.13- 43.5 53.6----
2024-02-26 06:18 pm N 2.9 4.1----30.12- 43.7 53.8----
2024-02-26 06:12 pm N 4.1 6.0----30.12- 43.9 53.8----
2024-02-26 06:06 pmNNE 4.1 6.0----30.11- 44.1 53.8----
2024-02-26 06:00 pm NE 2.9 5.1----30.11+0.01- 53.8----
2024-02-26 05:54 pm NE 2.9 5.1----30.11-- 53.8----
2024-02-26 05:48 pm NE 5.1 6.0----30.11-- 53.8----
2024-02-26 05:42 pm NE 2.9 5.1----30.11-- 53.8----
2024-02-26 05:36 pm NE 5.1 6.0----30.11-- 53.8----
2024-02-26 05:30 pmNNE 5.1 7.0----30.11- 45.1 53.8----
2024-02-26 05:24 pmNNE 7.0 9.9----30.11- 45.1 54.0----
2024-02-26 05:18 pmNNE 8.0 15.9----30.11- 45.7 54.0----
2024-02-26 05:12 pmNNE 8.9 14.0----30.10- 46.9 54.0----
2024-02-26 05:06 pmNNE 7.0 15.9----30.10- 47.7 54.0----
2024-02-26 05:00 pmNNE 8.9 14.0----30.10+0.00 47.8-----
2024-02-26 04:54 pmNNW 9.9 15.9----30.10- 48.2-----
2024-02-26 04:48 pm N 8.0 11.1----30.10- 47.8 54.0----
2024-02-26 04:42 pm N 7.0 11.1----30.10- 48.0 54.0----
2024-02-26 04:36 pm N 7.0 12.0----30.10- 47.8 54.0----
2024-02-26 04:30 pm N 6.0 13.0----30.10-------
2024-02-26 04:24 pm N 8.9 15.9----30.10-------
2024-02-26 04:18 pm N 9.9 15.0----30.10- 48.0 54.0----
2024-02-26 04:12 pm N 8.0 12.0----30.10- 48.0 54.0----
2024-02-26 04:06 pm N 6.0 13.0----30.10- 48.4 54.0----
2024-02-26 04:00 pm N 7.0 9.9----30.10+0.00 47.8 54.0----
2024-02-26 03:54 pm N 6.0 13.0----30.10- 48.2 54.0----
2024-02-26 03:48 pm W 5.1 9.9----30.10- 47.1 54.0----
2024-02-26 03:42 pm N 4.1 11.1----30.10- 46.9 54.0----
2024-02-26 03:36 pmNNE 1.9 7.0----30.10- 47.7 54.0----
2024-02-26 03:30 pmWNW 2.9 9.9----30.10-------
2024-02-26 03:24 pm NE 4.1 8.9----30.10-------
2024-02-26 03:00 pm N 6.0 13.0----30.10+0.00 49.5 54.0----
2024-02-26 02:54 pm N 5.1 8.0----30.10- 49.5 54.0----
2024-02-26 02:48 pm N 1.9 11.1----30.10- 49.8 54.0----
2024-02-26 02:42 pmNNE 4.1 8.0----30.10- 48.7 54.0----
2024-02-26 02:36 pm N 7.0 8.9----30.10- 47.7 54.0----
2024-02-26 02:30 pmNNE 5.1 7.0----30.10- 47.5 53.8----
2024-02-26 02:24 pm N 6.0 14.0----30.10- 46.6 54.0----
2024-02-26 02:18 pm N 11.1 15.9----30.10- 48.0 53.8----
2024-02-26 02:12 pm N 9.9 13.0----30.09- 49.5 53.8----
2024-02-26 02:06 pm N 5.1 9.9----30.09- 50.4 53.8----
2024-02-26 02:00 pmNNE 2.9 12.0----30.09+0.01 50.0 53.8----
2024-02-26 01:54 pm N 9.9 13.0----30.09- 48.7 53.8----
2024-02-26 01:48 pm N 8.9 13.0----30.09- 48.7 53.8----
2024-02-26 01:42 pm N 8.9 14.0----30.10- 48.9 53.8----
2024-02-26 01:36 pm N 9.9 14.0----30.09- 48.7 53.8----
2024-02-26 01:30 pm N 6.0 9.9----30.10- 49.3 53.6----
2024-02-26 01:24 pm N 7.0 15.9----30.10- 48.6 53.6----
2024-02-26 01:18 pm N 8.0 14.0----30.09- 48.2 53.6----
2024-02-26 01:12 pm N 9.9 17.1----30.10- 48.2 53.6----
2024-02-26 01:06 pm N 12.0 18.1----30.10- 47.7 53.6----
2024-02-26 01:00 pm N 8.9 14.0----30.10+0.03 46.9 53.6----
2024-02-26 12:54 pm N 12.0 18.1----30.10- 46.2 53.6----
2024-02-26 12:48 pm N 11.1 15.9----30.10-- 53.6----
2024-02-26 12:42 pm N 8.9 14.0----30.10-- 53.6----
2024-02-26 12:36 pm N 9.9 14.0----30.09-- 53.6----
2024-02-26 12:30 pm N 7.0 14.0----30.09- 49.3 53.6----
2024-02-26 12:24 pm N 8.9 14.0----30.09- 49.3 53.6----
2024-02-26 12:18 pm N 9.9 15.0----30.10- 49.3-----
2024-02-26 12:12 pm N 7.0 12.0----30.09- 48.0-----
2024-02-26 12:06 pm N 8.0 14.0----30.10- 48.6-----
2024-02-26 12:00 pm N 6.0 11.1----30.09+0.04 49.5 53.6----
2024-02-26 11:54 amNNW 8.0 12.0----30.10- 48.9 53.6----
2024-02-26 11:48 am N 7.0 12.0----30.10- 48.9 53.6----
2024-02-26 11:42 am N 6.0 11.1----30.10- 48.9 53.6----
2024-02-26 11:36 am N 6.0 13.0----30.10- 48.6 53.6----
2024-02-26 11:30 amNNE 7.0 11.1----30.09- 48.0 53.6----
2024-02-26 11:24 am N 8.0 12.0----30.09- 47.1 53.6----
2024-02-26 11:18 am N 7.0 17.1----30.09- 45.9 53.8----
2024-02-26 11:12 am N 9.9 15.0----30.09- 45.7 53.8----
2024-02-26 11:06 am N 12.0 18.1----30.09- 47.1 53.8----
2024-02-26 11:00 am N 7.0 13.0----30.09+0.04 48.7 53.8----
2024-02-26 10:54 am N 8.9 14.0----30.09- 48.4 53.8----
2024-02-26 10:48 amNNE 8.0 12.0----30.09- 48.4 53.8----
2024-02-26 10:42 am N 7.0 13.0----30.09- 48.6 53.8----
2024-02-26 10:36 amNNE 7.0 12.0----30.08- 48.2 53.8----
2024-02-26 10:30 am N 7.0 9.9----30.08- 46.9 53.6----
2024-02-26 10:24 amNNE 7.0 11.1----30.08- 46.4 53.6----
2024-02-26 10:18 am N 8.0 12.0----30.08- 46.0 53.6----
2024-02-26 10:12 am N 8.0 12.0----30.08- 45.9 53.6----
2024-02-26 10:06 am N 8.9 13.0----30.08- 46.2 53.6----
2024-02-26 10:00 am N 8.0 13.0----30.07+0.04 46.6 53.6----
2024-02-26 09:54 am N 9.9 14.0----30.07- 47.3 53.6----
2024-02-26 09:48 am N 8.0 14.0----30.07- 48.2 53.6----
2024-02-26 09:42 am N 6.0 12.0----30.06- 48.6 53.6----
2024-02-26 09:36 amNNE 8.9 13.0----30.06- 48.7 53.6----
2024-02-26 09:30 am N 6.0 9.9----30.06- 48.9 53.6----
2024-02-26 09:24 am N 5.1 9.9----30.06- 48.9 53.6----
2024-02-26 09:18 am N 6.0 12.0----30.06- 47.8 53.6----
2024-02-26 09:12 am N 6.0 9.9----30.06- 47.1 53.6----
2024-02-26 09:06 am NE 6.0 9.9----30.06- 46.6 53.6----
2024-02-26 09:00 amNNE 5.1 8.9----30.06+0.05 45.7 53.6----
2024-02-26 08:54 amNNE 6.0 9.9----30.06- 45.7 53.4----
2024-02-26 08:48 am NE 4.1 7.0----30.06- 45.5 53.4----
2024-02-26 08:42 amNNE 1.9 5.1----30.06- 45.1 53.2----
2024-02-26 08:36 am NE 5.1 6.0----30.05- 45.0 53.2----
2024-02-26 08:30 amENE 1.9 4.1----30.05- 44.8 53.2----
2024-02-26 08:24 amNNE 1.9 2.9----30.05- 43.3 53.2----
2024-02-26 08:18 am N 1.9 2.9----30.04- 43.3 53.2----
2024-02-26 08:12 am NE 1.9 4.1----30.05- 43.2 53.2----
2024-02-26 08:06 amENE 2.9 5.1----30.04- 43.0 53.2----
2024-02-26 08:00 am NE 2.9 5.1----30.04+0.06 42.8 53.2----
2024-02-26 07:54 am NE 4.1 5.1----30.04- 42.4 53.2----
2024-02-26 07:48 am NE 4.1 5.1----30.04- 42.4 53.2----
2024-02-26 07:42 amENE 2.9 6.0----30.04- 42.3 53.2----
2024-02-26 07:36 amENE 4.1 6.0----30.04- 42.4 53.2----
2024-02-26 07:30 amENE 5.1 6.0----30.03- 42.4 53.2----
2024-02-26 07:24 amENE 4.1 5.1----30.03- 42.4 53.2----
2024-02-26 07:18 am E 2.9 5.1----30.03- 42.6 53.2----
2024-02-26 07:12 am N 1.9 5.1----30.03- 42.4 53.2----
2024-02-26 07:06 am N 1.0 5.1----30.03- 42.4 53.2----
2024-02-26 07:00 am NE 5.1 8.0----30.03+0.07 42.6 53.2----
2024-02-26 06:54 amNNE 8.0 9.9----30.03- 42.4 53.2----
2024-02-26 06:48 amENE 1.0 6.0----30.02- 42.4 53.2----
2024-02-26 06:42 amNNE 4.1 7.0----30.02- 42.6 53.2----
2024-02-26 06:36 amNNE 5.1 7.0----30.02- 42.6 53.2----
2024-02-26 06:30 amNNE 6.0 9.9----30.02- 42.8 53.2----
2024-02-26 06:24 amNNE 7.0 14.0----30.02- 43.0 53.2----
2024-02-26 06:18 amNNE 6.0 8.9----30.02- 43.3 53.4----
2024-02-26 06:12 amNNE 6.0 11.1----30.01- 43.5 53.4----
2024-02-26 06:06 am N 6.0 12.0----30.01- 43.9 53.4----
2024-02-26 06:00 am N 8.0 17.1----30.01+0.03 43.9 53.4----
2024-02-26 05:54 am N 8.0 15.9----30.01- 44.4 53.4----
2024-02-26 05:48 am N 8.9 15.0----30.00- 44.6 53.4----
2024-02-26 05:42 am N 8.9 14.0----30.00- 44.8 53.4----
2024-02-26 05:36 am N 6.0 15.9----30.00- 45.0 53.4----
2024-02-26 05:30 am N 9.9 18.1----30.00- 45.0 53.6----
2024-02-26 05:24 am N 11.1 19.0----29.99- 45.0 53.6----
2024-02-26 05:18 am N 9.9 15.9----29.99- 45.5 53.6----
2024-02-26 05:12 am N 8.9 15.9----29.99- 46.0 53.6----
2024-02-26 05:06 am N 9.9 15.9----29.98- 46.0 53.6----
2024-02-26 05:00 am N 8.9 14.0----29.98-0.01 46.2 53.6----
2024-02-26 04:54 am N 8.9 17.1----29.98- 46.2 53.6----
2024-02-26 04:48 am N 12.0 17.1----29.98- 46.8 53.6----
2024-02-26 04:42 am N 8.9 14.0----29.98- 46.9 53.6----
2024-02-26 04:36 am N 7.0 14.0----29.97- 46.9 53.6----
2024-02-26 04:30 am N 6.0 12.0----29.97- 46.9 53.6----
2024-02-26 04:24 am N 8.9 14.0----29.97- 47.1 53.6----
2024-02-26 04:18 am N 8.0 12.0----29.97- 47.3 53.8----
2024-02-26 04:12 am N 6.0 21.0----29.97- 48.0 53.8----
2024-02-26 04:06 am SW 17.1 20.0----29.96- 48.6 53.8----
2024-02-26 04:00 amWSW 19.0 22.0----29.96-0.04 48.4 53.6----
2024-02-26 03:54 amWSW 18.1 21.0----29.96- 49.1 53.6----
2024-02-26 03:48 am SW 19.0 22.0----29.96- 48.9 53.6----
2024-02-26 03:42 am SW 18.1 21.0----29.96- 48.9 53.6----
2024-02-26 03:36 amWSW 17.1 20.0----29.96- 49.1 53.6----
2024-02-26 03:30 amWSW 19.0 21.0----29.96- 48.7 53.6----
2024-02-26 03:24 am SW 15.9 19.0----29.97- 49.1 53.6----
2024-02-26 03:18 amWSW 15.9 18.1----29.97- 48.7 53.6----
2024-02-26 03:12 amWSW 15.0 18.1----29.98- 48.6 53.6----
2024-02-26 03:06 amWSW 15.9 18.1----29.98- 48.2 53.6----
2024-02-26 03:00 amWSW 15.9 18.1----29.98-0.02 48.4 53.6----
2024-02-26 02:54 am W 15.0 19.0----29.98- 48.4 53.6----
2024-02-26 02:48 amWSW 15.0 19.0----29.98- 48.6 53.6----
2024-02-26 02:42 amWSW 18.1 20.0----29.98- 48.2 53.6----
2024-02-26 02:36 am W 15.0 18.1----29.98- 48.4 53.6----
2024-02-26 02:30 am W 14.0 18.1----29.98- 48.2 53.6----
2024-02-26 02:24 am W 17.1 20.0----29.98- 48.0 53.6----
2024-02-26 02:18 am W 17.1 20.0----29.98- 48.0 53.6----
2024-02-26 02:12 amWSW 18.1 21.0----29.99- 48.9 53.6----
2024-02-26 02:06 am SW 15.9 22.0----29.99- 49.1 53.6----
2024-02-26 02:00 am SW 18.1 19.0----29.99-0.03 49.1 53.6----
2024-02-26 01:54 amSSW 15.0 19.0----29.99- 48.9 53.6----
2024-02-26 01:48 amSSW 18.1 21.0----29.99- 48.7 53.6----
2024-02-26 01:42 am SW 20.0 22.0----29.99- 48.6 53.6----
2024-02-26 01:36 am SW 18.1 22.0----29.99- 49.1 53.8----
2024-02-26 01:30 am SW 17.1 19.0----29.99- 49.1 53.8----
2024-02-26 01:24 am SW 18.1 20.0----29.99- 48.9 53.8----
2024-02-26 01:18 amSSW 17.1 20.0----29.99- 48.7 53.8----
2024-02-26 01:12 amSSW 17.1 19.0----29.99- 48.6 53.8----
2024-02-26 01:06 amSSW 18.1 21.0----29.99- 48.7 53.8----
2024-02-26 01:00 amSSW 15.0 19.0----29.99-0.03 48.4 53.8----
2024-02-26 12:54 am SW 18.1 20.0----29.99- 48.6 53.8----
2024-02-26 12:48 amSSW 18.1 21.0----29.99- 48.9 53.8----
2024-02-26 12:42 amSSW 17.1 20.0----30.00- 49.1 53.8----
2024-02-26 12:36 am SW 15.9 18.1----30.00- 48.9 53.8----
2024-02-26 12:30 amSSW 15.0 17.1----30.00- 48.7 53.8----
2024-02-26 12:24 amSSW 15.9 18.1----30.00- 48.7 53.8----
2024-02-26 12:18 amSSW 15.9 18.1----30.00- 48.7 53.8----
2024-02-26 12:12 amSSW 17.1 18.1----30.00- 48.6 53.8----
2024-02-26 12:06 amSSW 15.9 18.1----30.00- 48.7 53.8----
2024-02-26 12:00 amSSW 15.0 17.1----30.00-0.01 48.9 53.8----
2024-02-25 11:54 pm SW 14.0 15.9----30.00- 48.9 53.8----
2024-02-25 11:48 pmSSW 13.0 14.0----30.00- 48.6 54.0----
2024-02-25 11:42 pmSSW 11.1 14.0----30.01- 48.6 54.0----
2024-02-25 11:36 pmSSW 12.0 14.0----30.01- 48.6 54.0----
2024-02-25 11:30 pmSSW 12.0 14.0----30.01- 48.4 54.0----
2024-02-25 11:24 pmSSW 12.0 15.0----30.01- 48.4 54.0----
2024-02-25 11:18 pmSSW 13.0 15.0----30.01- 48.2 54.0----
2024-02-25 11:12 pm SW 13.0 14.0----30.01- 47.8 54.0----
2024-02-25 11:06 pm SW 12.0 14.0----30.01- 48.2 54.0----
2024-02-25 11:00 pm SW 9.9 13.0----30.02+0.00 47.8 54.0----
2024-02-25 10:54 pmWSW 11.1 12.0----30.02- 48.2 54.0----
2024-02-25 10:48 pm W 9.9 12.0----30.02- 48.2 54.0----
2024-02-25 10:42 pm W 11.1 14.0----30.02- 48.4 54.0----
2024-02-25 10:36 pm W 12.0 14.0----30.02- 48.0 54.0----
2024-02-25 10:30 pm W 7.0 11.1----30.03- 48.0 54.0----
2024-02-25 10:24 pm W 8.9 11.1----30.03- 48.0 54.0----
2024-02-25 10:18 pm W 11.1 13.0----30.03- 48.2 54.0----
2024-02-25 10:12 pm SW 13.0 14.0----30.02- 48.4 54.0----
2024-02-25 10:06 pmWSW 9.9 13.0----30.02- 48.7 54.0----
2024-02-25 10:00 pmWSW 8.9 12.0----30.02+0.00 48.7 54.0----
2024-02-25 09:54 pm W 8.9 11.1----30.02- 48.7 54.0----
2024-02-25 09:48 pm W 8.9 9.9----30.02- 48.6 54.0----
2024-02-25 09:42 pmWSW 9.9 12.0----30.01- 48.6 54.0----
2024-02-25 09:36 pm W 8.9 11.1----30.02- 48.2 54.0----
2024-02-25 09:30 pm W 7.0 8.9----30.02- 48.4 54.0----
2024-02-25 09:24 pm W 7.0 9.9----30.02- 48.2 54.0----
2024-02-25 09:18 pm W 8.0 12.0----30.01- 48.4 54.0----
2024-02-25 09:12 pmWSW 4.1 6.0----30.01- 48.7 54.0----
2024-02-25 09:06 pmWSW 5.1 6.0----30.02- 48.4 54.0----
2024-02-25 09:00 pmWSW 5.1 7.0----30.01+0.00 48.4 54.0----
2024-02-25 08:54 pm W 5.1 7.0----30.01- 48.2 54.0----
2024-02-25 08:48 pmWSW 6.0 8.0----30.01- 48.2 54.0----
2024-02-25 08:42 pm W 7.0 8.9----30.01- 48.2 54.0----
2024-02-25 08:36 pm W 8.0 8.9----30.02- 48.7 54.0----
2024-02-25 08:30 pmWSW 4.1 5.1----30.02- 48.7 54.0----
2024-02-25 08:24 pm NW 2.9 5.1----30.02- 48.6 54.0----
2024-02-25 08:18 pmWNW 2.9 5.1----30.02- 48.6 54.0----
2024-02-25 08:12 pmWNW 5.1 8.0----30.02- 48.6 54.0----
2024-02-25 08:06 pmWNW 7.0 8.9----30.02- 48.7 54.0----
2024-02-25 08:00 pmWNW 6.0 8.9----30.02+0.01 48.9 54.0----
2024-02-25 07:54 pmWNW 7.0 9.9----30.02- 48.9 54.1----